Content
SEND FEEDBACK

Daily
Averages
Monthly
Summary
United States of America

ST. LOUIS, MISSOURI


Home > North America > United States > Missouri
Elevation: 535 feet     Latitude: 38 45N     Longitude: 090 22W

WEATHER
 
SELECT A DAY
Number of Records: 196,500;   Date Range: 1/1/95 - 8/30/14
 
SHARE

PRINT THIS DATA

[ ← Previous Day ]
WEATHER ALMANAC - APRIL 22, 2013
[ Next Day → ]
[ °C ]   °F
Weather ElementAverageHighLow
Temperature59.2 °F71.1 °F (1:54 pm)37.9 °F (5:54 am)
Dewpoint38.4 °F44.1 °F (11:54 pm)35.1 °F (1:54 am)
Humidity50.4 %89 % (5:54 am)30 % (11:54 am)
Barometer30.11 in30.25 in (1:54 am)29.96 in (6:54 pm)
Wind Speed4.9 mph12.7 mph (2:54 pm)
Wind Gust19.6 mph (3:54 pm)
Weather ElementAverage
Visibility10 mi
Wind DirectionE (87 °)

Weather ElementTotal
Precipitation---
Heating Degree Days10.5 (Base 65)
Growing Degree Days4.5 (Base 50)
Averaged from 23 records on April 22, 2013
WEATHER CONDITIONS BREAKOUT
WIND DIRECTION BREAKOUT
Weather ElementAverageHighLow
Temperature59.2 °F71.1 °F (1:54 pm)37.9 °F (5:54 am)
Dewpoint38.4 °F44.1 °F (11:54 pm)35.1 °F (1:54 am)
Humidity50.4 %89 % (5:54 am)30 % (11:54 am)
Barometer30.11 in30.25 in (1:54 am)29.96 in (6:54 pm)
Wind Speed4.9 mph12.7 mph (2:54 pm)
Wind Gust19.6 mph (3:54 pm)
Weather ElementAverage
Visibility10 mi
Wind DirectionE (87 °)

Weather ElementTotal
Precipitation---
Heating Degree Days10.5 (Base 65)
Growing Degree Days4.5 (Base 50)
Averaged from 23 records on April 22, 2013
WEATHER CONDITIONS BREAKOUT
WIND DIRECTION BREAKOUT
WEATHER BY HOUR - APRIL 22, 2013
[ °C ]   °F
Local TimeTemperatureDewpointHumidityBarometerVisibilityWind DirectionWind SpeedGust SpeedPrecipitationEventsConditions
1:54 AM46.0 °F35.1 °F66 %30.25 in10.0 miCalmClear
2:54 AM42.1 °F36.0 °F79 %30.24 in10.0 miCalmClear
3:54 AM42.1 °F35.1 °F76 %30.24 in10.0 miCalmClear
4:54 AM39.9 °F35.1 °F83 %30.23 in10.0 miCalmClear
5:54 AM37.9 °F35.1 °F89 %30.22 in10.0 miCalmClear
6:54 AM37.9 °F35.1 °F89 %30.22 in10.0 miCalmClear
7:54 AM46.9 °F39.9 °F77 %30.22 in10.0 miCalmClear
8:54 AM55.0 °F36.0 °F49 %30.21 in10.0 miSE (130°)4.6 mphScattered Clouds
9:54 AM60.1 °F36.0 °F41 %30.19 in10.0 miSouth (180°)8.1 mphScattered Clouds
10:54 AM64.9 °F37.0 °F36 %30.18 in10.0 miSouth (170°)9.2 mphMostly Cloudy
11:54 AM68.0 °F35.1 °F30 %30.16 in10.0 miSouth (180°)8.1 mphClear
12:54 PM68.0 °F36.0 °F31 %30.12 in10.0 miSE (130°)8.1 mphMostly Cloudy
1:54 PM71.1 °F42.1 °F35 %30.08 in10.0 miEast (100°)11.5 mphClear
2:54 PM71.1 °F39.0 °F31 %30.06 in10.0 miESE (120°)12.7 mph18.4 mphMostly Cloudy
3:54 PM71.1 °F41.0 °F34 %30.01 in10.0 miESE (120°)9.2 mph19.6 mphMostly Cloudy
4:54 PM71.1 °F39.9 °F32 %29.99 in10.0 miSE (130°)8.1 mphMostly Cloudy
5:54 PM71.1 °F41.0 °F34 %29.98 in10.0 miESE (120°)10.4 mph18.4 mphClear
6:54 PM70.0 °F37.9 °F31 %29.96 in10.0 miSSE (160°)8.1 mph17.3 mphMostly Cloudy
7:54 PM68.0 °F39.0 °F35 %29.97 in10.0 miSSE (150°)6.9 mphOvercast
8:54 PM66.0 °F42.1 °F42 %29.99 in10.0 miSSE (150°)4.6 mphMostly Cloudy
9:54 PM66.0 °F43.0 °F43 %30.00 in10.0 miSSE (160°)3.5 mphMostly Cloudy
10:54 PM64.0 °F43.0 °F46 %30.00 in10.0 miCalmClear
11:54 PM63.0 °F44.1 °F50 %30.00 in10.0 miCalmOvercast
Hourly data recorded from KSUS, located miles away from St. Louis, Missouri







STORIES FROM OUR PARTNERS